Location: *
(43.9900°N, 3.4811°E)
Time: 03:59:30
(UTC+00:00)

Cosmos 2360 Rocket - Pass Details

Date: 25 August 2019
Orbit: 835 x 844 km, 71.0° (Epoch: 15 September)

Event Time Altitude Azimuth Distance (km) Brightness Sun altitude
Rises 23:19:56 0° 330° (NNW) 3,396 6.2 -35.0°
Reaches altitude 10° 23:22:26 10° 325° (NW) 2,459 5.3 -35.1°
Enters shadow 23:25:24 30° 309° (NW) 1,458 3.7 -35.2°
